TimeEDT,TemperatureF,Dew PointF,Humidity,Sea Level PressureIn,VisibilityMPH,Wind Direction,Wind SpeedMPH,Gust SpeedMPH,PrecipitationIn,Events,Conditions,WindDirDegrees,DateUTC
12:15 AM,26.6,24.8,93,29.82,10.0,Calm,Calm,-,N/A,,Partly Cloudy,0,2013-03-21 04:15:00
12:35 AM,26.6,24.8,93,29.82,10.0,Calm,Calm,-,N/A,,Partly Cloudy,0,2013-03-21 04:35:00
12:55 AM,26.6,24.8,93,29.83,10.0,Calm,Calm,-,N/A,,Mostly Cloudy,0,2013-03-21 04:55:00
1:15 AM,26.6,23.0,86,29.83,10.0,SW,3.5,-,N/A,,Overcast,230,2013-03-21 05:15:00
1:35 AM,26.6,24.8,93,29.83,10.0,SSW,5.8,-,N/A,,Overcast,210,2013-03-21 05:35:00
1:55 AM,28.4,26.6,93,29.83,10.0,Calm,Calm,-,N/A,,Overcast,0,2013-03-21 05:55:00
2:15 AM,30.2,26.6,86,29.82,10.0,Calm,Calm,-,N/A,,Overcast,0,2013-03-21 06:15:00
2:35 AM,30.2,26.6,86,29.82,10.0,Calm,Calm,-,N/A,,Overcast,0,2013-03-21 06:35:00
2:55 AM,28.4,26.6,93,29.81,10.0,Calm,Calm,-,N/A,,Overcast,0,2013-03-21 06:55:00
3:15 AM,28.4,26.6,93,29.81,10.0,Calm,Calm,-,N/A,,Overcast,0,2013-03-21 07:15:00
3:35 AM,28.4,26.6,93,29.80,10.0,Calm,Calm,-,N/A,,Overcast,0,2013-03-21 07:35:00
3:55 AM,26.6,24.8,93,29.80,10.0,Calm,Calm,-,N/A,,Overcast,0,2013-03-21 07:55:00
4:15 AM,26.6,24.8,93,29.78,10.0,Calm,Calm,-,N/A,,Overcast,0,2013-03-21 08:15:00
4:35 AM,26.6,24.8,93,29.78,10.0,NNW,4.6,-,N/A,,Mostly Cloudy,330,2013-03-21 08:35:00
4:55 AM,26.6,24.8,93,29.78,10.0,Calm,Calm,-,N/A,,Mostly Cloudy,0,2013-03-21 08:55:00
5:15 AM,26.6,24.8,93,29.78,10.0,Calm,Calm,-,N/A,,Overcast,0,2013-03-21 09:15:00
5:35 AM,26.6,23.0,86,29.78,10.0,North,3.5,-,N/A,,Overcast,350,2013-03-21 09:35:00
5:55 AM,28.4,24.8,86,29.77,10.0,North,5.8,-,N/A,,Overcast,360,2013-03-21 09:55:00
6:15 AM,28.4,23.0,80,29.79,10.0,North,4.6,-,N/A,,Overcast,360,2013-03-21 10:15:00
6:35 AM,28.4,21.2,74,29.78,10.0,North,6.9,-,N/A,,Overcast,360,2013-03-21 10:35:00
6:55 AM,28.4,21.2,74,29.77,10.0,NNE,5.8,-,N/A,,Mostly Cloudy,20,2013-03-21 10:55:00
7:15 AM,28.4,21.2,74,29.77,10.0,NE,5.8,-,N/A,,Mostly Cloudy,40,2013-03-21 11:15:00
7:35 AM,32.0,24.8,75,29.78,10.0,NNE,4.6,-,N/A,,Overcast,30,2013-03-21 11:35:00
7:55 AM,32.0,24.8,75,29.77,10.0,NNE,4.6,-,N/A,,Mostly Cloudy,20,2013-03-21 11:55:00
8:15 AM,32.0,24.8,75,29.78,10.0,NNE,6.9,-,N/A,,Mostly Cloudy,20,2013-03-21 12:15:00
8:35 AM,35.6,24.8,65,29.77,10.0,NE,6.9,-,N/A,,Overcast,40,2013-03-21 12:35:00
8:55 AM,35.6,23.0,60,29.77,10.0,NE,8.1,-,N/A,,Overcast,40,2013-03-21 12:55:00
9:15 AM,37.4,23.0,56,29.76,10.0,NE,11.5,-,N/A,,Overcast,40,2013-03-21 13:15:00
9:35 AM,35.6,23.0,60,29.76,10.0,NNE,10.4,-,N/A,,Overcast,30,2013-03-21 13:35:00
9:55 AM,37.4,23.0,56,29.75,10.0,NE,11.5,-,N/A,,Overcast,50,2013-03-21 13:55:00
10:15 AM,37.4,23.0,56,29.75,10.0,NNE,6.9,-,N/A,,Overcast,30,2013-03-21 14:15:00
10:35 AM,37.4,23.0,56,29.74,10.0,NNE,9.2,-,N/A,,Overcast,30,2013-03-21 14:35:00
10:55 AM,37.4,23.0,56,29.73,10.0,NE,11.5,-,N/A,,Overcast,40,2013-03-21 14:55:00
11:15 AM,37.4,23.0,56,29.72,10.0,North,11.5,18.4,N/A,,Overcast,10,2013-03-21 15:15:00
11:35 AM,39.2,23.0,52,29.71,10.0,NNE,13.8,18.4,N/A,,Mostly Cloudy,30,2013-03-21 15:35:00
11:55 AM,39.2,23.0,52,29.70,10.0,NE,12.7,-,N/A,,Mostly Cloudy,40,2013-03-21 15:55:00
12:15 PM,37.4,21.2,52,29.69,10.0,NNE,13.8,18.4,N/A,,Mostly Cloudy,20,2013-03-21 16:15:00
12:35 PM,39.2,23.0,52,29.68,10.0,NNE,11.5,18.4,N/A,,Mostly Cloudy,30,2013-03-21 16:35:00
12:55 PM,37.4,23.0,56,29.67,10.0,North,12.7,17.3,N/A,,Overcast,10,2013-03-21 16:55:00
1:15 PM,35.6,23.0,60,29.67,10.0,NNE,15.0,19.6,N/A,,Overcast,30,2013-03-21 17:15:00
1:35 PM,35.6,23.0,60,29.66,10.0,NE,15.0,20.7,N/A,,Overcast,40,2013-03-21 17:35:00
1:55 PM,35.6,24.8,65,29.65,9.0,NE,17.3,24.2,N/A,,Mostly Cloudy,40,2013-03-21 17:55:00
2:15 PM,35.6,24.8,65,29.65,10.0,NNE,13.8,24.2,N/A,,Overcast,30,2013-03-21 18:15:00
2:35 PM,33.8,24.8,70,29.64,10.0,NNE,10.4,18.4,N/A,,Overcast,20,2013-03-21 18:35:00
2:55 PM,33.8,24.8,70,29.63,10.0,NE,13.8,21.9,N/A,,Overcast,40,2013-03-21 18:55:00
3:15 PM,32.0,24.8,75,29.63,10.0,NNE,12.7,23.0,N/A,,Overcast,30,2013-03-21 19:15:00
3:35 PM,32.0,24.8,75,29.62,10.0,NNE,13.8,21.9,N/A,,Overcast,30,2013-03-21 19:35:00
3:55 PM,33.8,24.8,70,29.60,10.0,NNE,17.3,25.3,N/A,,Overcast,30,2013-03-21 19:55:00
4:15 PM,33.8,24.8,70,29.59,10.0,NNE,18.4,27.6,N/A,,Overcast,30,2013-03-21 20:15:00
4:35 PM,32.0,26.6,80,29.59,10.0,NNE,12.7,24.2,N/A,Rain,Light Rain,30,2013-03-21 20:35:00
4:55 PM,33.8,26.6,75,29.59,10.0,NE,12.7,20.7,N/A,,Overcast,40,2013-03-21 20:55:00
5:15 PM,32.0,26.6,80,29.59,10.0,NNE,16.1,23.0,N/A,,Overcast,30,2013-03-21 21:15:00
5:35 PM,32.0,26.6,80,29.59,10.0,NE,16.1,20.7,N/A,,Mostly Cloudy,40,2013-03-21 21:35:00
5:55 PM,32.0,26.6,80,29.59,10.0,NNE,12.7,18.4,N/A,,Overcast,20,2013-03-21 21:55:00
6:15 PM,32.0,26.6,80,29.59,10.0,North,9.2,17.3,N/A,,Overcast,10,2013-03-21 22:15:00
6:35 PM,32.0,26.6,80,29.60,10.0,NNE,10.4,16.1,N/A,,Overcast,20,2013-03-21 22:35:00
6:55 PM,32.0,26.6,80,29.61,10.0,North,8.1,18.4,N/A,,Overcast,360,2013-03-21 22:55:00
7:15 PM,32.0,28.4,87,29.61,10.0,North,11.5,-,N/A,,Overcast,360,2013-03-21 23:15:00
7:35 PM,32.0,28.4,87,29.61,5.0,North,8.1,-,N/A,,Overcast,360,2013-03-21 23:35:00
7:55 PM,32.0,28.4,87,29.61,2.0,North,10.4,-,0.03,Snow,Light Snow,10,2013-03-21 23:55:00
8:15 PM,32.0,28.4,87,29.61,1.0,North,8.1,-,0.10,Snow,Light Snow,360,2013-03-22 00:15:00
8:35 PM,30.2,28.4,93,29.61,1.8,North,9.2,-,0.18,Snow,Light Snow,350,2013-03-22 00:35:00
8:55 PM,30.2,28.4,93,29.61,0.8,North,10.4,-,0.56,Snow,Light Snow,350,2013-03-22 00:55:00
9:15 PM,30.2,28.4,93,29.60,0.8,North,8.1,-,0.37,Snow,Light Snow,360,2013-03-22 01:15:00
9:35 PM,32.0,28.4,87,29.60,1.8,North,8.1,-,0.63,Snow,Light Snow,350,2013-03-22 01:35:00
9:55 PM,32.0,28.4,87,29.59,1.5,North,10.4,-,0.91,Snow,Light Snow,360,2013-03-22 01:55:00
10:15 PM,32.0,28.4,87,29.59,4.0,North,6.9,-,0.01,Snow,Light Snow,350,2013-03-22 02:15:00
10:35 PM,30.2,28.4,93,29.59,3.0,NNW,6.9,-,0.05,Snow,Light Snow,340,2013-03-22 02:35:00
10:55 PM,30.2,28.4,93,29.59,1.5,NNW,8.1,-,0.16,Snow,Light Snow,330,2013-03-22 02:55:00
11:15 PM,30.2,28.4,93,29.59,1.8,NNW,10.4,-,0.08,Snow,Light Snow,330,2013-03-22 03:15:00
11:35 PM,30.2,28.4,93,29.59,2.0,NW,6.9,-,0.15,Snow,Light Snow,320,2013-03-22 03:35:00
11:55 PM,30.2,28.4,93,29.59,1.2,NW,8.1,-,0.25,Snow,Light Snow,310,2013-03-22 03:55:00